Location: *
(51.8167°N, 12.5000°E)
Time: 06:16:39
(UTC+00:00)

Cosmos 1624 Rocket - Pass Details

Date: 16 September 2019
Orbit: 757 x 784 km, 74.0° (Epoch: 20 October)

Event Time Altitude Azimuth Distance (km) Brightness Sun altitude
Rises 19:32:27 0° 192° (SSW) 3,208 7.0 -19.6°
Reaches altitude 10° 19:34:50 10° 189° (S) 2,284 6.2 -20.0°
Maximum altitude 19:39:56 63° 110° (ESE) 847 3.9 -20.6°
Drops below altitude 10° 19:45:04 10° 30° (NNE) 2,298 6.5 -21.3°
Sets 19:47:28 0° 27° (NNE) 3,229 7.3 -21.6°
